星链-31085 (STARLINK-31085 )

导读

STARLINK-31085是美国太空探索技术公司SpaceX星链互联网卫星星座的一员,于北京时间2023年12月19日发射入轨,属于星链低轨卫星组网的批次卫星之一。它运行在近地轨道,承担为全球提供低延迟宽带互联网服务的任务,是SpaceX推进星链大规模部署进程中新增的组网卫星。

基本信息
目录编号:
58609
目录名称:
STARLINK-31085
国际标识:
2023-200W
轨道中心:
EARTH
卫星名称:
星链-31085
卫星全名:
星链-31085 (STARLINK-31085 )
卫星状态:
在轨 (已飞行997 天)
发射日期:
2023-12-19 UTC
国别 :
美国 (US)
星等 :
--
该卫星已列入 空间交会检测服务 Space Conjunction Data Service (SCDS) ,当前飞行风险评估等级: 无高风险
轨道信息
数据来源 国际轨道数据 AOE轨道数据
星历时间 2026-09-11T21:04:50+0800
8小时前
查看轨道信息
2026-09-09T22:00:00+0800
2天前
查看轨道信息
半长轴 6861.196km 6861.214km
偏心率 0.0001125 0.000119
轨道倾角 43.001° 43.000°
近地点辐角 266.615° 262.521°
升交点赤经 199.347° 210.432°
平近点角 93.457° 96.999°
近地点 482.287km 482.26km
远地点 483.831km 483.894km
周期 94.267分钟 94.267分钟
每日圈数 15.275768 15.275707
详细信息
固有亮度:
5
最大亮度:
0.3
卫星平台:
Starlink v2.0 mini
覆盖范围:
全球
运营商:
太空探索技术公司
运营商所在国:
美国
制造商(研发单位):
太空探索技术公司
制造商所在国:
美国
使用方式:
暂无
卫星简介
星链(Starlink)计划是由太空探索技术公司(SpaceX)提出的一个巨型低轨卫星互联网星座项目,计划在2019年至2024年间在太空搭建由约1.2万颗卫星组成的“星链”网络,其中1584颗将部署在地球上空550千米处的近地轨道,并从2020年开始工作。该卫星仍在工作。
2D轨道图
3D轨道图
轨道高度分析图
轨道倾角分析图
轨道综合分析图
查看轨道综合分析图
交会数据列表
事件ID 空间交会对象 最接近时刻(TCA) 交会距离 交会风险概率(CRP) 交会风险指数(CRI) 操作
CDM_260913-140302-636605-860922
SIMSAT 2 (26366)
2026-09-13T
14:03:54+0000
1.814 km
极远距离
3.146114E-6 低风险 0.45
与全量物体交会距离演化趋势
与全量物体交会风险概率演化趋势